Regional Weather Roundup
Issued by NWS

Home | Current Version | Previous Version | Text Only | Print | Product List | Glossary Off
Versions: 1 2 3 4 5 6 7 8 9 10 11 12 13 14 15 16 17 18 19 20 21 22 23 24 25 26 27 28 29 30 31 32 33 34 35 36 37 38 39 40 41 42 43 44 45 46 47 48 49 50

000
ASUS43 KDMX 300408
RWRIA

WEATHER ROUNDUP FOR IOWA
NATIONAL WEATHER SERVICE DES MOINES IA
1100 PM CDT FRI APR 29 2016

NOTE: "FAIR" INDICATES FEW OR NO CLOUDS BELOW 12,000 FEET WITH NO
SIGNIFICANT WEATHER AND/OR OBSTRUCTIONS TO VISIBILITY.

* - THESE STATIONS ARE NOT NWS STATIONS...THUS NOT UNDER NWS
QUALITY CONTROL.  THEY ALSO DO NOT REPORT WEATHER SUCH
AS PRECIPITATION OR FOG.

IAZ001>003-012>014-020>022-031>034-043>046-300500-
   NORTHWEST IOWA

CITY           SKY/WX    TMP DP  RH WIND       PRES   REMARKS
CARROLL *      CLOUDY    46  43  87 E16       30.01S
CHEROKEE *     CLOUDY    45  41  87 E12G17    30.03F
DENISON *      CLOUDY    45  41  87 E14G22    29.97F
LE MARS *      CLOUDY    45  41  87 E9        30.04F
ORANGE CITY *  CLOUDY    43  39  87 E9        30.04F
SHELDON *      MOCLDY    43  41  93 E10       30.05S
SIOUX CITY     CLOUDY    47  39  74 E8        30.01F
SPENCER        CLOUDY    46  39  76 E15       30.07S
STORM LAKE *   CLOUDY    45  39  81 E21G30    30.02F
$$

IAZ055>058-069>071-079>083-090>094-300500-
   SOUTHWEST IOWA

CITY           SKY/WX    TMP DP  RH WIND       PRES   REMARKS
ATLANTIC *     CLOUDY    46  43  87 E15G24    29.95F
AUDUBON *      CLOUDY    45  41  87 NE17      29.98F
CLARINDA *       N/A    N/A N/A N/A MISG        N/A
COUNCIL BLFS * CLOUDY    46  43  87 NE15G25   29.93F
CRESTON *      CLOUDY    46  43  87 NE18G24   29.93F
HARLAN  *      CLOUDY    46  43  87 E17G24    29.99F
LAMONI         CLOUDY    47  44  90 E15G25    29.91F
RED OAK *      CLOUDY    48  45  87 E17       29.92F
SHENANDOAH *   CLOUDY    48  46  93 NE17G25   29.89F
$$

IAZ047>049-059>061-072>074-084-300500-
   CENTRAL IOWA

CITY           SKY/WX    TMP DP  RH WIND       PRES   REMARKS
AMES           CLOUDY    47  41  80 E13       30.04R
ANKENY *       CLOUDY    48  45  87 E12       30.02S
BOONE *        CLOUDY    46  43  87 E14       30.02F
CHARITON *     CLOUDY    48  45  87 NE15G22   29.96F
DES MOINES     CLOUDY    49  41  74 E15G23    30.01S
GRINNELL*      CLOUDY    46  43  87 E13       30.04S
KNOXVILLE *    CLOUDY    48  43  81 E14G21    29.97F
MARSHALLTOWN   CLOUDY    46  41  82 E10       30.05R
NEWTON *       CLOUDY    46  45  93 E15       30.03R
PELLA *        DRIZZLE   48  43  81 E10       30.03S
$$

IAZ004>006-015-016-023>025-035-036-300500-
   NORTH CENTRAL IOWA

CITY           SKY/WX    TMP DP  RH WIND       PRES   REMARKS
ALGONA *       CLOUDY    46  43  87 E7        30.07F
CLARION *      CLOUDY    45  43  93 E7        30.07S
ESTHERVILLE    MOCLDY    43  40  89 E9        30.09R
FORT DODGE *   CLOUDY    45  37  76 NE8       30.05F
MASON CITY     CLOUDY    46  41  82 E9        30.10R
FOREST CITY *  CLOUDY    45  39  81 E3        30.09R
WEBSTER CITY * CLOUDY    46  43  87 E10       30.03F
IOWA FALLS *   CLOUDY    46  41  81 E8        30.07R
$$

IAZ007>011-017>019-026>030-037>042-050>054-066-300500-
   NORTHEAST IOWA

CITY           SKY/WX    TMP DP  RH WIND       PRES   REMARKS
CEDAR RAPIDS   CLOUDY    46  42  86 E9        30.06R
CHARLES CITY * CLOUDY    46  43  87 E5        30.10R
CLINTON *      CLOUDY    47  41  80 E10       30.07F
DECORAH *      MOCLDY    46  39  76 E3G13     30.07F
MONTICELLO *   CLOUDY    46  41  81 E8        30.06S
OELWEIN *      PTCLDY    45  43  93 NE9       30.06F
WATERLOO       CLOUDY    44  40  85 E3        30.08R
$$

IAZ064-065-067-068-078-300500-
   EAST CENTRAL IOWA

CITY           SKY/WX    TMP DP  RH WIND       PRES   REMARKS
DAVENPORT      CLOUDY    47  41  80 E13       30.07F
IOWA CITY      CLOUDY    48  41  76 E9        30.08R
MT. PLEASANT * CLOUDY    50  45  81 E13       30.02S
MUSCATINE *    PTCLDY    48  43  81 E8G16     30.07R
QUAD CITIES    CLOUDY    48  41  76 E16       30.05F
$$

IAZ062-063-075>077-085>089-095>099-300500-
   SOUTHEAST IOWA

CITY           SKY/WX    TMP DP  RH WIND       PRES   REMARKS
BURLINGTON     CLOUDY    48  44  86 E10G22    30.02F
FAIRFIELD *    CLOUDY    48  43  81 E16G22    30.02F
FORT MADISON * CLOUDY    48  45  87 NE12      30.03R
KEOKUK *       CLOUDY    50  45  81 NE14G20   30.00R
OSKALOOSA *    LGT RAIN  47  43  85 E15       30.02F
OTTUMWA        LGT RAIN  48  43  82 E14       30.01R
WASHINGTON *   CLOUDY    48  45  87 E14       30.06R
$$

ABBREVIATIONS USED IN REMARKS
   TC - TEMPERATURES IN CELSIUS
  WCI - WIND CHILL INDEX
   HX - HEAT INDEX
  VSB - VISIBILITY
$$





USA.gov is the U.S. government's official web portal to all federal, state and local government web resources and services.